| time (UTC) | temp C | wind direction | speed KPH | gust KPH | rain 1hr cm | rain 24hr cm | rain mn cm | humidity % | barometer mb |
| 20260502130318 | -4 | 229 | 1.6 | 6.4 | 0.00 | 0.03 | 0.00 | 71 | 1023.3 |
| 20260502123813 | -6 | 229 | 3.2 | 6.4 | 0.00 | 0.03 | 0.00 | 69 | 1023.2 |
| 20260502123322 | -6 | 229 | 4.8 | 6.4 | 0.00 | 0.03 | 0.00 | 69 | 1023.3 |
| 20260502122812 | -6 | 249 | 4.8 | 6.4 | 0.00 | 0.03 | 0.00 | 69 | 1023.2 |
| 20260502122312 | -6 | 249 | 3.2 | 6.4 | 0.00 | 0.03 | 0.00 | 69 | 1023.2 |
| 20260502121842 | -6 | 249 | 4.8 | 6.4 | 0.00 | 0.03 | 0.00 | 68 | 1023.2 |
| 20260502121308 | -5 | 249 | 3.2 | 6.4 | 0.00 | 0.03 | 0.00 | 68 | 1023.2 |
| 20260502120313 | -5 | 249 | 4.8 | 4.8 | 0.00 | 0.03 | 0.00 | 69 | 1023.2 |
| 20260502115821 | -5 | 249 | 3.2 | 4.8 | 0.00 | 0.03 | 0.00 | 69 | 1023.1 |
| 20260502115329 | -5 | 249 | 1.6 | 4.8 | 0.00 | 0.03 | 0.00 | 69 | 1023.1 |
| 20260502114811 | -5 | 249 | 1.6 | 8.0 | 0.00 | 0.03 | 0.00 | 69 | 1023.1 |
| 20260502114319 | -6 | 248 | 4.8 | 8.0 | 0.00 | 0.03 | 0.00 | 68 | 1023.2 |
| 20260502113806 | -6 | 247 | 3.2 | 8.0 | 0.00 | 0.03 | 0.00 | 67 | 1023.2 |
| 20260502113314 | -5 | 247 | 3.2 | 8.0 | 0.00 | 0.03 | 0.00 | 68 | 1023.2 |
| 20260502112815 | -5 | 244 | 4.8 | 6.4 | 0.00 | 0.03 | 0.00 | 68 | 1023.2 |
| 20260502112306 | -5 | 243 | 4.8 | 8.0 | 0.00 | 0.03 | 0.00 | 69 | 1023.2 |
| 20260502111812 | -5 | 242 | 6.4 | 11.3 | 0.00 | 0.03 | 0.00 | 70 | 1023.2 |
| 20260502111314 | -5 | 241 | 8.0 | 11.3 | 0.00 | 0.03 | 0.00 | 71 | 1023.2 |
| 20260502110823 | -5 | 237 | 8.0 | 9.7 | 0.00 | 0.03 | 0.00 | 69 | 1023.2 |
| 20260502110311 | -5 | 237 | 6.4 | 8.0 | 0.00 | 0.03 | 0.00 | 68 | 1023.3 |
| 20260502105841 | -5 | 233 | 6.4 | 8.0 | 0.00 | 0.03 | 0.00 | 68 | 1023.3 |
| 20260502105325 | -5 | 239 | 6.4 | 8.0 | 0.00 | 0.03 | 0.00 | 67 | 1023.4 |
| 20260502104833 | -5 | 240 | 4.8 | 9.7 | 0.00 | 0.03 | 0.00 | 66 | 1023.4 |
| 20260502104314 | -4 | 241 | 4.8 | 11.3 | 0.00 | 0.03 | 0.00 | 65 | 1023.2 |
| 20260502103822 | -4 | 240 | 8.0 | 9.7 | 0.00 | 0.03 | 0.00 | 64 | 1023.2 |
| 20260502103310 | -3 | 246 | 8.0 | 9.7 | 0.00 | 0.03 | 0.00 | 63 | 1023.2 |
| 20260502102812 | -3 | 254 | 4.8 | 8.0 | 0.00 | 0.03 | 0.00 | 63 | 1023.3 |
| 20260502102320 | -3 | 303 | 3.2 | 6.4 | 0.00 | 0.03 | 0.00 | 63 | 1023.2 |
| 20260502101320 | -3 | 303 | 4.8 | 6.4 | 0.00 | 0.03 | 0.00 | 65 | 1023.2 |
| 20260502100828 | -4 | 303 | 3.2 | 6.4 | 0.00 | 0.03 | 0.00 | 66 | 1023.2 |
| 20260502100308 | -4 | 303 | 4.8 | 6.4 | 0.00 | 0.03 | 0.00 | 65 | 1023.2 |
| 20260502091341 | -5 | 309 | 6.4 | 8.0 | 0.00 | 0.03 | 0.00 | 65 | 1023.0 |
| 20260502090828 | -4 | 325 | 3.2 | 4.8 | 0.00 | 0.03 | 0.00 | 65 | 1023.0 |
| 20260502090309 | -4 | 325 | 1.6 | 4.8 | 0.00 | 0.03 | 0.00 | 64 | 1022.9 |
| 20260502071312 | -2 | 265 | 0.0 | 0.0 | 0.00 | 0.03 | 0.00 | 57 | 1023.0 |
| 20260502070820 | -2 | 265 | 0.0 | 0.0 | 0.00 | 0.03 | 0.00 | 55 | 1023.0 |
| 20260502070328 | -2 | 265 | 0.0 | 9.7 | 0.00 | 0.03 | 0.00 | 54 | 1022.9 |
| 20260502065809 | -1 | 265 | 1.6 | 9.7 | 0.00 | 0.03 | 0.00 | 56 | 1022.8 |
| 20260502065316 | -2 | 269 | 4.8 | 8.0 | 0.00 | 0.03 | 0.00 | 56 | 1022.7 |
| 20260502064807 | -2 | 259 | 4.8 | 8.0 | 0.00 | 0.03 | 0.00 | 55 | 1022.7 |
| 20260502064306 | -2 | 243 | 6.4 | 8.0 | 0.00 | 0.03 | 0.00 | 55 | 1022.7 |
| 20260502063815 | -1 | 306 | 4.8 | 6.4 | 0.00 | 0.03 | 0.00 | 56 | 1022.6 |
| 20260502063352 | -1 | 306 | 1.6 | 6.4 | 0.00 | 0.03 | 0.00 | 56 | 1022.6 |
| 20260502062807 | -1 | 327 | 1.6 | 4.8 | 0.00 | 0.03 | 0.00 | 54 | 1022.5 |
| 20260502062315 | 0 | 327 | 1.6 | 4.8 | 0.00 | 0.03 | 0.00 | 53 | 1022.5 |
| 20260502061824 | 0 | 355 | 0.0 | 0.0 | 0.00 | 0.03 | 0.00 | 54 | 1022.5 |
| 20260502061305 | 0 | 355 | 0.0 | 3.2 | 0.00 | 0.03 | 0.00 | 57 | 1022.5 |
| 20260502060813 | 0 | 355 | 0.0 | 4.8 | 0.00 | 0.03 | 0.00 | 58 | 1022.5 |
| 20260502060321 | 0 | 355 | 1.6 | 4.8 | 0.00 | 0.03 | 0.00 | 56 | 1022.4 |
| 20260502055825 | 0 | 355 | 1.6 | 4.8 | 0.00 | 0.03 | 0.03 | 55 | 1022.4 |
| 20260502055306 | 0 | 355 | 3.2 | 4.8 | 0.00 | 0.03 | 0.03 | 53 | 1022.4 |
| 20260502054835 | 0 | 331 | 0.0 | 4.8 | 0.00 | 0.03 | 0.03 | 51 | 1022.4 |
| 20260502054328 | 0 | 331 | 1.6 | 4.8 | 0.00 | 0.03 | 0.03 | 51 | 1022.4 |
| 20260502053809 | 0 | 342 | 1.6 | 4.8 | 0.00 | 0.03 | 0.03 | 52 | 1022.4 |
| 20260502053316 | 1 | 342 | 3.2 | 6.4 | 0.00 | 0.03 | 0.03 | 50 | 1022.3 |
| 20260502052824 | 1 | 342 | 1.6 | 6.4 | 0.00 | 0.03 | 0.03 | 50 | 1022.1 |
| 20260502052310 | 1 | 355 | 0.0 | 8.0 | 0.00 | 0.03 | 0.03 | 51 | 1022.1 |
| 20260502051812 | 1 | 266 | 4.8 | 9.7 | 0.00 | 0.03 | 0.03 | 51 | 1022.0 |
| 20260502051348 | 1 | 258 | 4.8 | 11.3 | 0.00 | 0.03 | 0.03 | 52 | 1021.9 |
| 20260502050808 | 1 | 251 | 8.0 | 11.3 | 0.00 | 0.03 | 0.03 | 49 | 1022.0 |
| 20260502050316 | 1 | 210 | 1.6 | 4.8 | 0.00 | 0.03 | 0.03 | 48 | 1022.0 |
| 20260502045825 | 1 | 119 | 0.0 | 14.5 | 0.00 | 0.03 | 0.03 | 48 | 1022.0 |
| 20260502045306 | 1 | 119 | 1.6 | 14.5 | 0.00 | 0.03 | 0.03 | 48 | 1022.0 |
| 20260502044813 | 2 | 154 | 4.8 | 6.4 | 0.00 | 0.03 | 0.03 | 43 | 1021.9 |
| 20260502044322 | 2 | 111 | 0.0 | 0.0 | 0.00 | 0.03 | 0.03 | 44 | 1021.9 |
| 20260502043832 | 2 | 111 | 0.0 | 0.0 | 0.00 | 0.03 | 0.03 | 45 | 1021.8 |
| 20260502043311 | 2 | 111 | 0.0 | 0.0 | 0.00 | 0.03 | 0.03 | 45 | 1021.9 |
| 20260502042820 | 2 | 111 | 0.0 | 0.0 | 0.00 | 0.03 | 0.03 | 45 | 1021.9 |
| 20260502042307 | 2 | 113 | 0.0 | 0.0 | 0.00 | 0.03 | 0.03 | 44 | 1021.9 |
| 20260502041809 | 2 | 214 | 0.0 | 0.0 | 0.00 | 0.03 | 0.03 | 43 | 1021.8 |
| 20260502041318 | 2 | 214 | 0.0 | 1.6 | 0.00 | 0.03 | 0.03 | 43 | 1021.8 |
| 20260502040810 | 2 | 214 | 0.0 | 4.8 | 0.00 | 0.03 | 0.03 | 41 | 1021.7 |
| 20260502040318 | 3 | 214 | 3.2 | 4.8 | 0.00 | 0.03 | 0.03 | 41 | 1021.6 |
| 20260502035827 | 3 | 214 | 1.6 | 11.3 | 0.00 | 0.03 | 0.03 | 41 | 1021.6 |
| 20260502035308 | 2 | 234 | 6.4 | 11.3 | 0.00 | 0.03 | 0.03 | 42 | 1021.5 |
| 20260502034813 | 2 | 215 | 3.2 | 6.4 | 0.00 | 0.03 | 0.03 | 38 | 1021.4 |
| 20260502034322 | 3 | 270 | 0.0 | 1.6 | 0.00 | 0.03 | 0.03 | 37 | 1021.3 |
| 20260502033830 | 3 | 270 | 0.0 | 4.8 | 0.00 | 0.03 | 0.03 | 36 | 1021.2 |
| 20260502033311 | 4 | 270 | 1.6 | 9.7 | 0.00 | 0.03 | 0.03 | 37 | 1021.2 |
| 20260502032820 | 5 | 222 | 6.4 | 9.7 | 0.00 | 0.03 | 0.03 | 32 | 1021.2 |
| 20260502032328 | 6 | 287 | 0.0 | 1.6 | 0.00 | 0.03 | 0.03 | 31 | 1021.2 |
| 20260502031810 | 6 | 287 | 0.0 | 4.8 | 0.00 | 0.03 | 0.03 | 30 | 1021.0 |
| 20260502031318 | 7 | 287 | 1.6 | 6.4 | 0.00 | 0.03 | 0.03 | 30 | 1020.9 |
| 20260502030826 | 6 | 284 | 3.2 | 8.0 | 0.00 | 0.03 | 0.03 | 30 | 1020.9 |
| 20260502030307 | 7 | 288 | 4.8 | 8.0 | 0.00 | 0.03 | 0.03 | 31 | 1020.8 |
| 20260502025815 | 7 | 278 | 3.2 | 6.4 | 0.00 | 0.03 | 0.03 | 31 | 1020.7 |
| 20260502025306 | 8 | 136 | 0.0 | 0.0 | 0.00 | 0.03 | 0.03 | 26 | 1020.6 |
| 20260502024805 | 8 | 136 | 0.0 | 0.0 | 0.00 | 0.03 | 0.03 | 26 | 1020.5 |
| 20260502024320 | 9 | 136 | 0.0 | 0.0 | 0.00 | 0.03 | 0.03 | 24 | 1020.4 |
| 20260502023829 | 10 | 136 | 0.0 | 0.0 | 0.00 | 0.03 | 0.03 | 23 | 1020.4 |
| 20260502023309 | 10 | 136 | 0.0 | 0.0 | 0.00 | 0.03 | 0.03 | 23 | 1020.3 |
| 20260502022817 | 11 | 136 | 0.0 | 0.0 | 0.00 | 0.03 | 0.03 | 22 | 1020.3 |
| 20260502022325 | 11 | 136 | 0.0 | 0.0 | 0.00 | 0.03 | 0.03 | 22 | 1020.2 |
| 20260502021834 | 11 | 136 | 0.0 | 0.0 | 0.00 | 0.03 | 0.03 | 22 | 1020.2 |
| 20260502021323 | 12 | 136 | 0.0 | 0.0 | 0.00 | 0.03 | 0.03 | 22 | 1020.2 |
| 20260502020811 | 12 | 136 | 0.0 | 0.0 | 0.00 | 0.03 | 0.03 | 22 | 1020.1 |
| 20260502020318 | 12 | 136 | 0.0 | 0.0 | 0.00 | 0.03 | 0.03 | 22 | 1020.1 |
| 20260502015827 | 13 | 136 | 0.0 | 0.0 | 0.00 | 0.05 | 0.03 | 23 | 1020.1 |
| 20260502015308 | 13 | 136 | 0.0 | 3.2 | 0.00 | 0.05 | 0.03 | 22 | 1020.1 |
| 20260502014817 | 13 | 136 | 0.0 | 6.4 | 0.00 | 0.05 | 0.03 | 20 | 1020.0 |
| 20260502014325 | 13 | 136 | 1.6 | 8.0 | 0.00 | 0.05 | 0.03 | 21 | 1020.0 |
| 20260502013807 | 14 | 136 | 3.2 | 8.0 | 0.00 | 0.05 | 0.03 | 19 | 1020.0 |
| 20260502013312 | 14 | 137 | 1.6 | 11.3 | 0.00 | 0.05 | 0.03 | 19 | 1019.9 |
| 20260502012821 | 14 | 128 | 3.2 | 9.7 | 0.00 | 0.05 | 0.03 | 18 | 1019.9 |
| 20260502012310 | 14 | 131 | 3.2 | 9.7 | 0.00 | 0.05 | 0.03 | 19 | 1019.8 |
| 20260502011819 | 14 | 132 | 1.6 | 9.7 | 0.00 | 0.05 | 0.03 | 19 | 1019.8 |
| 20260502011320 | 14 | 67 | 0.0 | 3.2 | 0.00 | 0.05 | 0.03 | 18 | 1019.8 |
| 20260502010808 | 14 | 63 | 0.0 | 6.4 | 0.00 | 0.05 | 0.03 | 19 | 1019.8 |
| 20260502010337 | 14 | 63 | 0.0 | 8.0 | 0.00 | 0.05 | 0.03 | 18 | 1019.8 |
| 20260502005825 | 15 | 80 | 0.0 | 8.0 | 0.00 | 0.10 | 0.03 | 19 | 1019.8 |
| 20260502005307 | 15 | 77 | 1.6 | 8.0 | 0.00 | 0.10 | 0.03 | 19 | 1019.8 |
| 20260502004815 | 14 | 67 | 0.0 | 14.5 | 0.00 | 0.10 | 0.03 | 18 | 1019.8 |
| 20260502004323 | 15 | 64 | 8.0 | 14.5 | 0.00 | 0.10 | 0.03 | 18 | 1019.7 |
| 20260502003811 | 15 | 64 | 1.6 | 11.3 | 0.00 | 0.10 | 0.03 | 18 | 1019.8 |
| 20260502003312 | 15 | 84 | 0.0 | 16.1 | 0.00 | 0.10 | 0.03 | 18 | 1019.8 |
| 20260502002821 | 15 | 98 | 0.0 | 17.7 | 0.00 | 0.10 | 0.03 | 19 | 1019.7 |
| 20260502002309 | 15 | 119 | 9.7 | 17.7 | 0.00 | 0.10 | 0.03 | 18 | 1019.7 |
| 20260502001817 | 15 | 109 | 6.4 | 19.3 | 0.00 | 0.10 | 0.03 | 19 | 1019.7 |
| 20260502001346 | 15 | 103 | 16.1 | 19.3 | 0.00 | 0.10 | 0.03 | 18 | 1019.7 |
| 20260502000807 | 15 | 132 | 14.5 | 19.3 | 0.00 | 0.10 | 0.03 | 19 | 1019.7 |
| 20260502000317 | 15 | 128 | 9.7 | 20.9 | 0.00 | 0.10 | 0.03 | 17 | 1019.8 |
| 20260501235820 | 15 | 128 | 9.7 | 20.9 | 0.00 | 0.10 | 0.03 | 18 | 1019.8 |
| 20260501235308 | 15 | 151 | 8.0 | 17.7 | 0.00 | 0.10 | 0.03 | 18 | 1019.7 |
| 20260501234810 | 15 | 118 | 4.8 | 14.5 | 0.00 | 0.10 | 0.03 | 17 | 1019.9 |
| 20260501234318 | 15 | 113 | 0.0 | 14.5 | 0.00 | 0.10 | 0.03 | 17 | 1019.8 |
| 20260501233806 | 15 | 140 | 4.8 | 14.5 | 0.00 | 0.10 | 0.03 | 18 | 1019.7 |
| 20260501233314 | 15 | 45 | 4.8 | 20.9 | 0.00 | 0.10 | 0.03 | 17 | 1019.7 |
| 20260501232815 | 15 | 123 | 12.9 | 20.9 | 0.00 | 0.10 | 0.03 | 17 | 1019.7 |
| 20260501232324 | 15 | 124 | 12.9 | 16.1 | 0.00 | 0.10 | 0.03 | 17 | 1019.8 |
| 20260501231832 | 15 | 103 | 3.2 | 16.1 | 0.00 | 0.10 | 0.03 | 17 | 1019.9 |
| 20260501231319 | 15 | 96 | 4.8 | 16.1 | 0.00 | 0.10 | 0.03 | 18 | 1019.9 |
| 20260501230827 | 15 | 115 | 4.8 | 12.9 | 0.00 | 0.10 | 0.03 | 17 | 1019.9 |
| 20260501230309 | 15 | 126 | 3.2 | 14.5 | 0.00 | 0.10 | 0.03 | 18 | 1019.9 |
| 20260501225814 | 15 | 148 | 1.6 | 9.7 | 0.00 | 0.10 | 0.03 | 17 | 1019.9 |
| 20260501225322 | 15 | 204 | 3.2 | 16.1 | 0.00 | 0.10 | 0.03 | 17 | 1019.9 |
| 20260501224807 | 15 | 101 | 4.8 | 16.1 | 0.00 | 0.10 | 0.03 | 17 | 1019.9 |
| 20260501224316 | 15 | 109 | 1.6 | 16.1 | 0.00 | 0.10 | 0.03 | 17 | 1019.9 |
| 20260501223805 | 15 | 105 | 4.8 | 14.5 | 0.00 | 0.10 | 0.03 | 17 | 1019.9 |
| 20260501223306 | 15 | 78 | 6.4 | 16.1 | 0.00 | 0.10 | 0.03 | 17 | 1020.1 |
| 20260501222813 | 15 | 116 | 3.2 | 16.1 | 0.00 | 0.10 | 0.03 | 16 | 1020.1 |
| 20260501222322 | 15 | 117 | 0.0 | 12.9 | 0.00 | 0.10 | 0.03 | 17 | 1020.2 |
| 20260501221810 | 15 | 123 | 0.0 | 19.3 | 0.00 | 0.10 | 0.03 | 18 | 1020.2 |
| 20260501221338 | 15 | 121 | 9.7 | 19.3 | 0.00 | 0.10 | 0.03 | 18 | 1020.1 |
| 20260501220826 | 15 | 126 | 4.8 | 14.5 | 0.00 | 0.10 | 0.03 | 18 | 1020.3 |
| 20260501220307 | 15 | 111 | 4.8 | 14.5 | 0.00 | 0.10 | 0.03 | 18 | 1020.3 |
| 20260501215816 | 15 | 134 | 4.8 | 12.9 | 0.00 | 0.10 | 0.03 | 19 | 1020.3 |
| 20260501215324 | 15 | 84 | 0.0 | 3.2 | 0.00 | 0.10 | 0.03 | 19 | 1020.3 |
| 20260501214805 | 15 | 84 | 0.0 | 11.3 | 0.00 | 0.10 | 0.03 | 19 | 1020.4 |
| 20260501214313 | 15 | 124 | 4.8 | 14.5 | 0.00 | 0.10 | 0.03 | 19 | 1020.5 |
| 20260501213821 | 14 | 124 | 3.2 | 14.5 | 0.00 | 0.10 | 0.03 | 20 | 1020.6 |
| 20260501213329 | 15 | 134 | 1.6 | 11.3 | 0.00 | 0.10 | 0.03 | 19 | 1020.5 |
| 20260501212810 | 15 | 121 | 3.2 | 11.3 | 0.00 | 0.10 | 0.03 | 20 | 1020.7 |
| 20260501212317 | 15 | 355 | 1.6 | 4.8 | 0.00 | 0.10 | 0.03 | 19 | 1020.8 |
| 20260501211806 | 15 | 21 | 0.0 | 8.0 | 0.00 | 0.10 | 0.03 | 21 | 1020.8 |
| 20260501211336 | 14 | 154 | 0.0 | 8.0 | 0.00 | 0.10 | 0.03 | 21 | 1021.0 |
| 20260501210824 | 14 | 94 | 0.0 | 24.1 | 0.00 | 0.10 | 0.03 | 22 | 1021.0 |
| 20260501210305 | 14 | 51 | 9.7 | 24.1 | 0.00 | 0.10 | 0.03 | 22 | 1021.1 |
| 20260501205833 | 13 | 105 | 0.0 | 19.3 | 0.00 | 0.10 | 0.03 | 22 | 1021.0 |
| 20260501205321 | 13 | 105 | 3.2 | 22.5 | 0.00 | 0.10 | 0.03 | 22 | 1021.0 |
| 20260501204808 | 13 | 111 | 11.3 | 20.9 | 0.00 | 0.10 | 0.03 | 22 | 1020.9 |
| 20260501204317 | 13 | 108 | 1.6 | 19.3 | 0.00 | 0.10 | 0.03 | 21 | 1020.9 |
| 20260501203825 | 13 | 108 | 3.2 | 19.3 | 0.00 | 0.10 | 0.03 | 22 | 1021.0 |
| 20260501203307 | 13 | 74 | 0.0 | 12.9 | 0.00 | 0.10 | 0.03 | 20 | 1021.0 |
| 20260501202815 | 13 | 30 | 4.8 | 12.9 | 0.00 | 0.10 | 0.03 | 20 | 1021.1 |
| 20260501202345 | 13 | 317 | 1.6 | 6.4 | 0.00 | 0.10 | 0.03 | 20 | 1021.0 |
| 20260501201812 | 14 | 5 | 1.6 | 11.3 | 0.00 | 0.10 | 0.03 | 21 | 1021.1 |
| 20260501201313 | 14 | 271 | 3.2 | 11.3 | 0.00 | 0.10 | 0.03 | 21 | 1021.2 |
| 20260501200821 | 13 | 306 | 0.0 | 8.0 | 0.00 | 0.10 | 0.03 | 20 | 1021.1 |
| 20260501200310 | 13 | 340 | 1.6 | 12.9 | 0.00 | 0.10 | 0.03 | 22 | 1021.2 |
| 20260501195819 | 13 | 303 | 4.8 | 12.9 | 0.00 | 0.10 | 0.03 | 23 | 1021.3 |
| 20260501195327 | 13 | 194 | 3.2 | 17.7 | 0.00 | 0.10 | 0.03 | 23 | 1021.2 |
| 20260501194808 | 13 | 324 | 6.4 | 17.7 | 0.00 | 0.10 | 0.03 | 23 | 1021.3 |
| 20260501194316 | 13 | 254 | 8.0 | 12.9 | 0.00 | 0.10 | 0.03 | 23 | 1021.3 |
| 20260501193805 | 13 | 104 | 1.6 | 11.3 | 0.00 | 0.10 | 0.03 | 27 | 1021.3 |
| 20260501193307 | 13 | 12 | 4.8 | 11.3 | 0.00 | 0.10 | 0.03 | 26 | 1021.3 |
| 20260501192815 | 13 | 344 | 0.0 | 4.8 | 0.00 | 0.10 | 0.03 | 25 | 1021.3 |
| 20260501192323 | 13 | 348 | 1.6 | 8.0 | 0.00 | 0.10 | 0.03 | 27 | 1021.4 |
| 20260501191812 | 13 | 51 | 1.6 | 8.0 | 0.00 | 0.10 | 0.03 | 27 | 1021.4 |
| 20260501191320 | 13 | 334 | 1.6 | 16.1 | 0.00 | 0.10 | 0.03 | 26 | 1021.4 |
| 20260501190829 | 12 | 26 | 8.0 | 16.1 | 0.00 | 0.10 | 0.03 | 28 | 1021.5 |
| 20260501190337 | 12 | 314 | 1.6 | 9.7 | 0.00 | 0.10 | 0.03 | 28 | 1021.5 |
| 20260501185824 | 12 | 9 | 0.0 | 4.8 | 0.00 | 0.10 | 0.03 | 29 | 1021.6 |
| 20260501185306 | 11 | 176 | 0.0 | 6.4 | 0.00 | 0.10 | 0.03 | 29 | 1021.7 |
| 20260501184835 | 11 | 137 | 0.0 | 8.0 | 0.00 | 0.10 | 0.03 | 30 | 1021.6 |
| 20260501184321 | 12 | 355 | 0.0 | 11.3 | 0.00 | 0.10 | 0.03 | 30 | 1021.7 |
| 20260501183810 | 12 | 304 | 4.8 | 11.3 | 0.00 | 0.10 | 0.03 | 30 | 1021.8 |
| 20260501183339 | 12 | 39 | 0.0 | 8.0 | 0.00 | 0.10 | 0.03 | 31 | 1021.8 |
| 20260501182827 | 12 | 5 | 1.6 | 8.0 | 0.00 | 0.10 | 0.03 | 32 | 1021.8 |
| 20260501182335 | 12 | 355 | 1.6 | 4.8 | 0.00 | 0.10 | 0.03 | 33 | 1021.8 |
| 20260501181815 | 11 | 88 | 0.0 | 3.2 | 0.00 | 0.10 | 0.03 | 34 | 1021.9 |
| 20260501181324 | 11 | 47 | 0.0 | 1.6 | 0.00 | 0.10 | 0.03 | 34 | 1021.9 |
| 20260501180812 | 10 | 47 | 0.0 | 1.6 | 0.00 | 0.10 | 0.03 | 35 | 1022.0 |
| 20260501180340 | 10 | 46 | 0.0 | 1.6 | 0.00 | 0.10 | 0.03 | 35 | 1022.1 |
| 20260501175827 | 10 | 331 | 0.0 | 3.2 | 0.00 | 0.10 | 0.03 | 35 | 1022.1 |
| 20260501175307 | 10 | 331 | 0.0 | 12.9 | 0.00 | 0.10 | 0.03 | 34 | 1022.2 |
| 20260501174816 | 10 | 302 | 1.6 | 12.9 | 0.00 | 0.10 | 0.03 | 37 | 1022.2 |
| 20260501174325 | 10 | 338 | 0.0 | 11.3 | 0.00 | 0.10 | 0.03 | 37 | 1022.3 |
| 20260501173813 | 10 | 320 | 3.2 | 11.3 | 0.00 | 0.10 | 0.03 | 34 | 1022.3 |
| 20260501173315 | 10 | 303 | 6.4 | 11.3 | 0.00 | 0.10 | 0.03 | 37 | 1022.4 |
| 20260501172829 | 10 | 126 | 1.6 | 8.0 | 0.00 | 0.10 | 0.03 | 40 | 1022.4 |
| 20260501171818 | 10 | 63 | 1.6 | 8.0 | 0.00 | 0.10 | 0.03 | 42 | 1022.5 |
| 20260501171328 | 9 | 15 | 1.6 | 8.0 | 0.00 | 0.10 | 0.03 | 43 | 1022.5 |
| 20260501170809 | 8 | 27 | 0.0 | 3.2 | 0.00 | 0.10 | 0.03 | 44 | 1022.5 |
| 20260501170317 | 8 | 105 | 0.0 | 3.2 | 0.00 | 0.10 | 0.03 | 43 | 1022.5 |
| 20260501165805 | 8 | 349 | 0.0 | 6.4 | 0.00 | 0.10 | 0.03 | 44 | 1022.5 |
| 20260501165334 | 8 | 272 | 3.2 | 6.4 | 0.00 | 0.10 | 0.03 | 46 | 1022.6 |
| 20260501164842 | 8 | 75 | 0.0 | 3.2 | 0.00 | 0.10 | 0.03 | 47 | 1022.5 |
| 20260501164310 | 8 | 70 | 0.0 | 6.4 | 0.00 | 0.10 | 0.03 | 50 | 1022.6 |
| 20260501163818 | 8 | 204 | 1.6 | 6.4 | 0.00 | 0.10 | 0.03 | 47 | 1022.6 |
| 20260501163327 | 8 | 9 | 0.0 | 3.2 | 0.00 | 0.10 | 0.03 | 51 | 1022.7 |
| 20260501162808 | 8 | 294 | 1.6 | 6.4 | 0.00 | 0.10 | 0.03 | 53 | 1022.6 |
| 20260501162316 | 7 | 57 | 1.6 | 11.3 | 0.00 | 0.10 | 0.03 | 55 | 1022.7 |
| 20260501161824 | 7 | 355 | 1.6 | 11.3 | 0.00 | 0.10 | 0.03 | 58 | 1022.6 |
| 20260501161331 | 7 | 54 | 0.0 | 1.6 | 0.00 | 0.10 | 0.03 | 60 | 1022.6 |
| 20260501160813 | 7 | 55 | 0.0 | 1.6 | 0.00 | 0.10 | 0.03 | 60 | 1022.6 |
| 20260501160322 | 6 | 32 | 0.0 | 4.8 | 0.00 | 0.10 | 0.03 | 60 | 1022.7 |
| 20260501155811 | 6 | 33 | 0.0 | 6.4 | 0.00 | 0.10 | 0.03 | 61 | 1022.7 |
| 20260501155340 | 6 | 35 | 0.0 | 0.0 | 0.00 | 0.10 | 0.03 | 61 | 1022.8 |
| 20260501154827 | 6 | 34 | 0.0 | 0.0 | 0.00 | 0.10 | 0.03 | 64 | 1022.7 |
| 20260501154310 | 6 | 35 | 0.0 | 0.0 | 0.00 | 0.10 | 0.03 | 65 | 1022.8 |
| 20260501153840 | 6 | 36 | 0.0 | 0.0 | 0.00 | 0.10 | 0.03 | 66 | 1022.8 |
| 20260501153308 | 6 | 35 | 0.0 | 0.0 | 0.00 | 0.10 | 0.03 | 67 | 1022.8 |
| 20260501152838 | 6 | 28 | 0.0 | 0.0 | 0.00 | 0.10 | 0.03 | 68 | 1022.8 |
| 20260501152325 | 5 | 19 | 0.0 | 0.0 | 0.00 | 0.10 | 0.03 | 69 | 1022.8 |
| 20260501151834 | 5 | 20 | 0.0 | 0.0 | 0.03 | 0.10 | 0.03 | 70 | 1022.8 |
| 20260501151320 | 5 | 247 | 0.0 | 0.0 | 0.03 | 0.10 | 0.03 | 75 | 1022.8 |
| 20260501150821 | 4 | 247 | 0.0 | 0.0 | 0.03 | 0.10 | 0.03 | 79 | 1022.8 |
| 20260501150309 | 4 | 238 | 0.0 | 0.0 | 0.03 | 0.10 | 0.03 | 81 | 1022.8 |
| 20260501144805 | 2 | 223 | 0.0 | 0.0 | 0.03 | 0.10 | 0.03 | 88 | 1022.7 |
| 20260501144313 | 2 | 214 | 0.0 | 0.0 | 0.03 | 0.10 | 0.03 | 89 | 1022.8 |
| 20260501143822 | 1 | 214 | 0.0 | 0.0 | 0.03 | 0.10 | 0.03 | 90 | 1022.7 |
| 20260501143331 | 1 | 214 | 0.0 | 0.0 | 0.03 | 0.10 | 0.03 | 90 | 1022.8 |
| 20260501142812 | 0 | 214 | 0.0 | 0.0 | 0.03 | 0.10 | 0.03 | 91 | 1022.7 |
| 20260501142320 | 0 | 214 | 0.0 | 0.0 | 0.03 | 0.10 | 0.03 | 91 | 1022.7 |